Погода в Батакане

Россия / Забайкальский край     52°04′26″N   118°51′52″E
темп.,
°C
ветер,
м/с
пор.,
м/с
влажн.,
%
обл.,
%
осадки,
мм/ч
давл.,
гПа
погр.,
м
16 мая, вс
вс1600:00+4ююз11440 0.0 100711
03:00+3юз22550 0.0 100720
06:00+3зюз29570 0.0 1006242
09:00+9з57442 0.0 1005879
12:00+14з693035 0.0 10021592
15:00+17зсз6102799 0.0 10002645
18:00+15зюз6145090 0.1 9992250
21:00+13з5124539 0.1 9991007
17 мая, пн
пн1700:00+10сз411405 0.0 1001589
03:00+3сз11635 0.0 100513
06:00+2с116728 0.0 100711
09:00+9зюз233427 0.0 10051263
12:00+13зюз3623100 0.0 10012299
15:00+7зсз4562100 0.5 10031027
18:00+4ю1293100 3.6 1002524
21:00+4з1188100 3.9 1001199
18 мая, вт
вт1800:00+2зюз11955 0.1 100210
03:00+3юз259389 0.1 1002213
06:00+2з211912 0.0 1004452
09:00+6зсз59533 0.0 10051371
12:00+10зсз61024100 0.0 10033335
15:00+9зсз61026100 0.0 10043102
18:00+11зсз5112096 0.0 10033708
21:00+4сз1133100 0.0 100610
19 мая, ср
ср1900:00+1зюз11385 0.0 100810
03:00−1ююз114215 0.0 100810
06:00+1ю1243100 0.0 100745
09:00+9ююз3529100 0.0 1004743
12:00+13ююз4938100 0.0 9992163
15:00+15зюз3841100 0.1 9961903
18:00+8в1195100 4.4 99895
21:00+7ссз1197100 4.5 99932
20 мая, чт
чт2000:00+6сз1396100 0.1 1001157
03:00+3сз119825 0.1 100214
06:00+3сз119772 0.0 1003107
09:00+8ссз127611 0.0 1003493
12:00+16сз0140100 0.0 10011322
15:00+18ю1332100 0.0 9992070
18:00+16ю1135100 0.0 9981814
21:00+10с2364100 0.1 100166